Regional Weather Roundup
Issued by NWS Jackson, KY

Home | Current Version | Previous Version | Text Only | Print | Product List | Glossary Off
Versions: 1 2 3 4 5 6 7 8 9 10 11 12 13 14 15 16 17 18 19 20 21 22 23 24 25 26 27 28 29 30 31 32 33 34 35 36 37 38 39 40 41 42 43 44 45 46 47 48 49 50

000
ASUS43 KJKL 211710
RWRJKL

EAST KENTUCKY HOURLY WEATHER ROUNDUP
NATIONAL WEATHER SERVICE JACKSON KY
1200 PM EST FRI NOV 21 2014

NOTE: "FAIR" INDICATES FEW OR NO CLOUDS BELOW 12,000 FEET WITH
NO SIGNIFICANT WEATHER AND/OR OBSTRUCTIONS TO VISIBILITY.

* THESE REPORTS ARE NOT UNDER NWS QUALITY CONTROL AND MAY NOT
  REPORT WEATHER SUCH AS PRECIPITATION AND FOG.

KYZ079-080-083-085-087-088-110-112-115-119-120-211800
...EASTERN KENTUCKY...

CITY           SKY/WX    TMP DP  RH WIND       PRES   REMARKS
JACKSON        SUNNY     33  15  47 CALM      30.47F
LONDON         SUNNY     37  15  40 E5        30.48S WCI  33
MONTICELLO*    SUNNY     40  16  38 VRB5      30.52R
BIG SANDY*     SUNNY     33  15  47 SW5       30.50S WCI  28
MOREHEAD APT*  SUNNY     30   9  40 CALM      30.53F
$$

KYZ035-036-041-042-044-050-067-078-099-211800
...CENTRAL KENTUCKY...

CITY           SKY/WX    TMP DP  RH WIND       PRES   REMARKS
FLEMING/MASON* SUNNY     29   9  42 CALM      30.53F
RICHMOND*      SUNNY     34  14  44 CALM      30.49S
LEXINGTON      SUNNY     33  10  38 NE5       30.50S WCI  29
FRANKFORT      SUNNY     32   7  35 E6        30.50F WCI  26
$$

KYZ091>093-OHZ055-061-077-WVZ005-015-034-035-042-211800
...SOUTHERN OHIO/WEST VIRGINIA...

CITY           SKY/WX    TMP DP  RH WIND       PRES   REMARKS
COVINGTON      SUNNY     29  10  45 SE5       30.51F WCI  24
COLUMBUS       SUNNY     25  10  53 CALM      30.51F
DAYTON         SUNNY     28  11  48 NE3       30.51S
WILMINGTON     SUNNY     23   9  55 CALM      30.51S
HUNTINGTON     SUNNY     32  13  45 VRB5      30.51F WCI  27
CHARLESTON     SUNNY     32  10  40 VRB6      30.50S WCI  26
BECKLEY        SUNNY     29   5  36 NW12      30.38S WCI  19
BLUEFIELD      SUNNY     30   9  41 W9G18     30.38R WCI  22
$$

VAZ002-007-008-TNZ017-027-036-066-071-211800
...SOUTHWEST VIRGINIA/EAST TENNESSEE...

CITY           SKY/WX    TMP DP  RH WIND       PRES   REMARKS
WISE*          SUNNY     34   5  29 N7        30.41S WCI  28
JONESVILLE*    SUNNY     39   7  26 CALM      30.48S
BRISTOL        SUNNY     38  18  44 CALM      30.45F
KNOXVILLE      MOSUNNY   45  18  34 N10       30.46F
OAK RIDGE      SUNNY     44  15  31 VRB5      30.48F
CROSSVILLE     SUNNY     44  11  26 CALM      30.43S
NASHVILLE      MOSUNNY   45  22  40 E8        30.45F
$$

...KEY TO REMARKS...
VSB - VISIBILITY IN MILES
WCI - WIND CHILL INDEX
HX  - HEAT INDEX

$$


USA.gov is the U.S. government's official web portal to all federal, state and local government web resources and services.